Weather History for Casper, WY

Change the Weather History Date:

Monday, February 25, 2013

  Actual Average Record
Temperature  
Mean Temperature 19 °F 29 °F  
Max Temperature 29 °F 41 °F 65 °F (1986)
Min Temperature 9 °F 18 °F -16 °F (2014)
Degree Days  
Heating Degree Days 46 36  
Month to date heating degree days 962 965  
Since 1 July heating degree days 4913 5342  
Cooling Degree Days 0 0  
Month to date cooling degree days 0 0  
Year to date cooling degree days 0 0  
Moisture  
Dew Point 9 °F    
Average Humidity 67    
Maximum Humidity 83    
Minimum Humidity 50    
Precipitation  
Precipitation 0.00 in 0.02 in 0.31 in (1998)
Month to date precipitation 0.41 0.50  
Year to date precipitation 0.68 1.01  
Snow  
Snow 0.00 in 0.30 in - ()
Month to date snowfall 7.9 8.7  
Since 1 July snowfall 31.1 48.3  
Snow Depth 2.00 in    
Sea Level Pressure  
Sea Level Pressure 30.04 in    
Wind  
Wind Speed 22 mph (SW)    
Max Wind Speed 35 mph    
Max Gust Speed 39 mph    
Visibility 10 miles    
Events      
T = Trace of Precipitation, MM = Missing Value Source: NWS Daily Summary

Daily Weather History Graph

Daily Weather History Graph

Search for Another Location

Airport:

Trip Planner

Search our weather history database for the weather conditions in past years. The results will help you decide how hot, cold, wet, or windy it might be!

Date:

Astronomy

Feb. 25, 2013 Rise Set
Actual Time 6:47 AM MST 5:50 PM MST
Civil Twilight 6:19 AM MST 6:19 PM MST
Nautical Twilight 5:46 AM MST 6:52 PM MST
Astronomical Twilight 5:13 AM MST 7:24 PM MST
Moon 6:08 PM MST (2/25) 6:18 AM MST (2/25)
Length of Visible Light 12h 00m
Length of Day
11h 03m
Full, 100% of the Moon is Illuminated
Feb 25
Full
Feb 25
Full
Mar 4
Last Quarter
Mar 11
New
Mar 19
First Quarter

Hourly Weather History & Observations

Time (MST) Temp. Windchill Dew Point Humidity Pressure Visibility Wind Dir Wind Speed Gust Speed Precip Events Conditions
12:53 AM 10.0 °F -5.9 °F 5.0 °F 80% 30.19 in - WSW 13.8 mph - N/A   Clear
1:53 AM 12.9 °F 0.7 °F 6.1 °F 74% 30.17 in - SW 9.2 mph 21.9 mph N/A   Clear
2:53 AM 15.8 °F -0.6 °F 6.8 °F 68% 30.01 in - SW 18.4 mph 23.0 mph N/A   Clear
3:53 AM 10.9 °F - 3.9 °F 73% 30.15 in - North - - N/A   Clear
4:53 AM 15.1 °F -0.6 °F 7.0 °F 70% 30.13 in 10.0 mi SW 16.1 mph - N/A   Clear
5:53 AM 15.1 °F -2.9 °F 7.0 °F 70% 30.14 in 10.0 mi SSW 21.9 mph 28.8 mph N/A   Clear
6:53 AM 15.1 °F -2.5 °F 6.1 °F 68% 30.13 in 10.0 mi SSW 20.7 mph 27.6 mph N/A   Clear
7:53 AM 15.1 °F -1.6 °F 6.1 °F 68% 30.16 in 10.0 mi SW 18.4 mph 26.5 mph N/A   Clear
8:53 AM 17.1 °F -2.0 °F 6.1 °F 62% 30.17 in 10.0 mi SW 27.6 mph 33.4 mph N/A   Clear
9:53 AM 19.9 °F 2.2 °F 7.0 °F 57% 30.15 in 10.0 mi SSW 26.5 mph 34.5 mph N/A   Clear
10:53 AM 21.9 °F 4.8 °F 8.1 °F 55% 30.10 in 10.0 mi SSW 26.5 mph 35.7 mph N/A   Clear
11:53 AM 24.1 °F 6.4 °F 10.0 °F 55% 30.09 in 10.0 mi SSW 32.2 mph 38.0 mph N/A   Clear
12:53 PM 26.1 °F 9.3 °F 12.0 °F 55% 30.05 in 10.0 mi SSW 31.1 mph 35.7 mph N/A   Clear
1:53 PM 27.0 °F 11.9 °F 14.0 °F 58% 30.02 in 10.0 mi SW 25.3 mph 38.0 mph N/A   Clear
2:53 PM 28.0 °F 13.0 °F 15.1 °F 58% 29.98 in 10.0 mi SW 26.5 mph 36.8 mph N/A   Clear
3:53 PM 28.9 °F 13.7 °F 14.0 °F 54% 29.97 in 10.0 mi SSW 28.8 mph 34.5 mph N/A   Clear
4:53 PM 27.0 °F 12.8 °F 12.9 °F 56% 29.95 in 10.0 mi SW 21.9 mph 28.8 mph N/A   Clear
5:53 PM 24.1 °F 11.0 °F 12.0 °F 60% 29.95 in 10.0 mi SW 16.1 mph - N/A   Clear
6:53 PM 25.0 °F 12.6 °F 10.0 °F 53% 29.93 in 10.0 mi SSW 15.0 mph 23.0 mph N/A   Clear
7:53 PM 25.0 °F 9.9 °F 10.0 °F 53% 29.92 in 10.0 mi SSW 23.0 mph 27.6 mph N/A   Clear
8:53 PM 26.1 °F 11.6 °F 10.0 °F 51% 29.92 in 10.0 mi SSW 21.9 mph 26.5 mph N/A   Clear
9:53 PM 26.1 °F 11.6 °F 10.9 °F 53% 29.89 in 10.0 mi SSW 21.9 mph 28.8 mph N/A   Clear
10:53 PM 27.0 °F 15.2 °F 12.0 °F 53% 29.89 in 10.0 mi SW 15.0 mph - N/A   Mostly Cloudy
11:53 PM 28.0 °F 14.3 °F 12.9 °F 53% 29.88 in 10.0 mi SW 21.9 mph 32.2 mph N/A   Overcast